• In Deutschland
  • Länderverzeichnis
  • Für 7 Tage
  • Wassertemperatur
  • Satellitenkarten
  • Wetterkarte
  • Widgets
  • user-avatar
    Anmelden

    Stündliche Wetter Ganja

    Heute, 27 Mai, Sonntag

    Zeit Temperatur Niederschläge Wind Luftdruck Luftfeuchtigkeit
    00:00 +21°C° 0,8 mm 2 m/S 726 mmHg 70%
    01:00 +20°C° 0,2 mm 2 m/S 726 mmHg 72%
    02:00 +20°C° 0,2 mm 2 m/S 726 mmHg 74%
    03:00 +19°C° 0 mm 3 m/S 726 mmHg 76%
    04:00 +19°C° 0 mm 3 m/S 727 mmHg 76%
    05:00 +20°C° 0 mm 3 m/S 727 mmHg 76%
    06:00 +20°C° 0 mm 3 m/S 728 mmHg 76%
    07:00 +21°C° 0 mm 4 m/S 728 mmHg 72%
    08:00 +22°C° 0 mm 4 m/S 728 mmHg 69%
    09:00 +23°C° 0 mm 5 m/S 729 mmHg 64%
    10:00 +24°C° 0 mm 6 m/S 729 mmHg 61%
    11:00 +24°C° 0 mm 6 m/S 729 mmHg 58%
    12:00 +26°C° 0 mm 7 m/S 730 mmHg 56%
    13:00 +26°C° 0,1 mm 7 m/S 730 mmHg 55%
    14:00 +26°C° 0,1 mm 7 m/S 730 mmHg 54%
    15:00 +24°C° 0 mm 8 m/S 730 mmHg 54%
    16:00 +23°C° 0 mm 8 m/S 730 mmHg 56%
    17:00 +22°C° 0 mm 7 m/S 730 mmHg 58%
    18:00 +21°C° 0 mm 7 m/S 731 mmHg 60%
    19:00 +20°C° 0 mm 6 m/S 731 mmHg 62%
    20:00 +19°C° 0 mm 5 m/S 731 mmHg 64%
    21:00 +18°C° 0 mm 4 m/S 731 mmHg 66%
    22:00 +17°C° 0 mm 4 m/S 731 mmHg 67%
    23:00 +17°C° 0 mm 3 m/S 731 mmHg 68%

    Morgen, 28 Mai, Montag

    Zeit Temperatur Niederschläge Wind Luftdruck Luftfeuchtigkeit
    00:00 +16°C° 0 mm 3 m/S 731 mmHg 69%
    01:00 +16°C° 0 mm 2 m/S 731 mmHg 70%
    02:00 +15°C° 0 mm 1 m/S 731 mmHg 71%
    03:00 +14°C° 0 mm 0 m/S 730 mmHg 72%
    04:00 +16°C° 0 mm 1 m/S 730 mmHg 70%
    05:00 +16°C° 0 mm 1 m/S 730 mmHg 69%
    06:00 +18°C° 0 mm 1 m/S 730 mmHg 67%
    07:00 +19°C° 0 mm 1 m/S 729 mmHg 63%
    08:00 +20°C° 0 mm 2 m/S 729 mmHg 59%
    09:00 +23°C° 0 mm 2 m/S 728 mmHg 55%
    10:00 +24°C° 0 mm 2 m/S 728 mmHg 52%
    11:00 +26°C° 0 mm 2 m/S 727 mmHg 49%
    12:00 +27°C° 0 mm 1 m/S 726 mmHg 47%
    13:00 +28°C° 0 mm 2 m/S 726 mmHg 46%
    14:00 +29°C° 0 mm 2 m/S 726 mmHg 45%
    15:00 +29°C° 0 mm 2 m/S 725 mmHg 43%
    16:00 +29°C° 0,1 mm 2 m/S 725 mmHg 46%
    17:00 +28°C° 0,1 mm 2 m/S 725 mmHg 49%
    18:00 +28°C° 0,1 mm 2 m/S 725 mmHg 51%
    19:00 +26°C° 0 mm 2 m/S 725 mmHg 54%
    20:00 +25°C° 0 mm 2 m/S 726 mmHg 57%
    21:00 +24°C° 0 mm 2 m/S 726 mmHg 59%
    22:00 +23°C° 0 mm 2 m/S 726 mmHg 60%
    23:00 +23°C° 0 mm 2 m/S 726 mmHg 62%

    übermorgen, 29 Mai, Dienstag

    Zeit Temperatur Niederschläge Wind Luftdruck Luftfeuchtigkeit
    00:00 +21°C° 0 mm 2 m/S 726 mmHg 63%
    01:00 +20°C° 0 mm 2 m/S 726 mmHg 65%
    02:00 +21°C° 0 mm 1 m/S 726 mmHg 68%
    03:00 +20°C° 0 mm 1 m/S 726 mmHg 70%
    04:00 +21°C° 0 mm 1 m/S 726 mmHg 70%
    05:00 +21°C° 0 mm 1 m/S 726 mmHg 69%
    06:00 +22°C° 0 mm 1 m/S 726 mmHg 68%
    07:00 +21°C° 0 mm 2 m/S 726 mmHg 66%
    08:00 +22°C° 0 mm 3 m/S 726 mmHg 63%
    09:00 +24°C° 0 mm 3 m/S 726 mmHg 61%
    10:00 +25°C° 0 mm 4 m/S 726 mmHg 58%
    11:00 +26°C° 0 mm 5 m/S 726 mmHg 56%
    12:00 +26°C° 0 mm 6 m/S 725 mmHg 53%
    13:00 +26°C° 0,1 mm 6 m/S 726 mmHg 53%
    14:00 +26°C° 0,1 mm 7 m/S 726 mmHg 53%
    15:00 +26°C° 0,1 mm 7 m/S 726 mmHg 53%
    16:00 +24°C° 0,5 mm 7 m/S 726 mmHg 58%
    17:00 +23°C° 0,5 mm 6 m/S 726 mmHg 62%
    18:00 +21°C° 0,5 mm 6 m/S 726 mmHg 66%
    19:00 +21°C° 0,9 mm 5 m/S 726 mmHg 68%
    20:00 +20°C° 0,9 mm 5 m/S 727 mmHg 71%
    21:00 +19°C° 0,9 mm 5 m/S 727 mmHg 74%
    22:00 +17°C° 0,7 mm 5 m/S 727 mmHg 74%
    23:00 +17°C° 0,7 mm 5 m/S 727 mmHg 75%

    30 Mai, Mittwoch

    Zeit Temperatur Niederschläge Wind Luftdruck Luftfeuchtigkeit
    00:00 +16°C° 0,7 mm 5 m/S 727 mmHg 76%
    01:00 +16°C° 0 mm 5 m/S 727 mmHg 75%
    02:00 +17°C° 0 mm 4 m/S 727 mmHg 75%
    03:00 +15°C° 0 mm 4 m/S 727 mmHg 75%
    04:00 +17°C° 0 mm 4 m/S 727 mmHg 75%
    05:00 +17°C° 0 mm 4 m/S 727 mmHg 74%
    06:00 +17°C° 0 mm 3 m/S 727 mmHg 74%
    07:00 +18°C° 0 mm 4 m/S 727 mmHg 70%
    08:00 +19°C° 0 mm 4 m/S 727 mmHg 65%
    09:00 +20°C° 0 mm 5 m/S 727 mmHg 60%
    10:00 +21°C° 0 mm 4 m/S 727 mmHg 59%
    11:00 +22°C° 0 mm 4 m/S 727 mmHg 57%
    12:00 +22°C° 0 mm 4 m/S 726 mmHg 56%
    13:00 +23°C° 0 mm 4 m/S 726 mmHg 55%
    14:00 +24°C° 0 mm 3 m/S 726 mmHg 55%
    15:00 +25°C° 0 mm 3 m/S 725 mmHg 54%
    16:00 +25°C° 0 mm 3 m/S 725 mmHg 55%
    17:00 +24°C° 0 mm 3 m/S 725 mmHg 56%
    18:00 +24°C° 0 mm 3 m/S 725 mmHg 57%
    19:00 +23°C° 0 mm 2 m/S 725 mmHg 59%
    20:00 +21°C° 0 mm 2 m/S 725 mmHg 62%
    21:00 +20°C° 0 mm 2 m/S 725 mmHg 64%
    22:00 +21°C° 0 mm 1 m/S 725 mmHg 64%
    23:00 +20°C° 0 mm 1 m/S 725 mmHg 65%

    31 Mai, Donnerstag

    Zeit Temperatur Niederschläge Wind Luftdruck Luftfeuchtigkeit
    00:00 +20°C° 0 mm 1 m/S 725 mmHg 65%
    01:00 +19°C° 0 mm 1 m/S 724 mmHg 66%
    02:00 +19°C° 0 mm 1 m/S 724 mmHg 67%
    03:00 +18°C° 0 mm 1 m/S 724 mmHg 68%
    04:00 +19°C° 0 mm 1 m/S 724 mmHg 67%
    05:00 +19°C° 0 mm 1 m/S 723 mmHg 66%
    06:00 +20°C° 0 mm 1 m/S 723 mmHg 64%
    07:00 +21°C° 0 mm 1 m/S 723 mmHg 61%
    08:00 +22°C° 0 mm 1 m/S 723 mmHg 58%
    09:00 +23°C° 0 mm 1 m/S 722 mmHg 55%
    10:00 +24°C° 0 mm 2 m/S 722 mmHg 53%
    11:00 +25°C° 0 mm 2 m/S 721 mmHg 51%
    12:00 +26°C° 0 mm 2 m/S 720 mmHg 48%
    13:00 +27°C° 0,3 mm 2 m/S 720 mmHg 48%
    14:00 +27°C° 0,3 mm 2 m/S 719 mmHg 48%
    15:00 +28°C° 0,3 mm 2 m/S 719 mmHg 47%
    16:00 +27°C° 0,5 mm 2 m/S 719 mmHg 52%
    17:00 +26°C° 0,5 mm 2 m/S 719 mmHg 56%
    18:00 +25°C° 0,5 mm 2 m/S 719 mmHg 61%
    19:00 +24°C° 0,8 mm 2 m/S 719 mmHg 65%
    20:00 +23°C° 0,8 mm 2 m/S 719 mmHg 70%
    21:00 +21°C° 0,8 mm 2 m/S 720 mmHg 75%
    22:00 +21°C° 0,1 mm 2 m/S 720 mmHg 74%
    23:00 +21°C° 0,1 mm 2 m/S 720 mmHg 73%

    1 Juni, Freitag

    Zeit Temperatur Niederschläge Wind Luftdruck Luftfeuchtigkeit
    00:00 +20°C° 0,1 mm 2 m/S 719 mmHg 72%
    01:00 +20°C° 0 mm 3 m/S 719 mmHg 72%
    02:00 +20°C° 0 mm 3 m/S 719 mmHg 72%
    03:00 +19°C° 0 mm 3 m/S 719 mmHg 71%
    04:00 +20°C° 0 mm 3 m/S 720 mmHg 70%
    05:00 +20°C° 0 mm 3 m/S 720 mmHg 68%
    06:00 +21°C° 0 mm 4 m/S 720 mmHg 66%
    07:00 +23°C° 0 mm 4 m/S 720 mmHg 59%
    08:00 +25°C° 0 mm 4 m/S 720 mmHg 53%
    09:00 +27°C° 0 mm 4 m/S 720 mmHg 46%
    10:00 +28°C° 0 mm 4 m/S 720 mmHg 44%
    11:00 +29°C° 0 mm 3 m/S 720 mmHg 42%
    12:00 +31°C° 0 mm 3 m/S 719 mmHg 40%
    13:00 +31°C° 0 mm 3 m/S 719 mmHg 39%
    14:00 +33°C° 0 mm 3 m/S 719 mmHg 38%
    15:00 +33°C° 0 mm 3 m/S 719 mmHg 37%
    16:00 +31°C° 0,1 mm 3 m/S 719 mmHg 40%
    17:00 +31°C° 0,1 mm 3 m/S 719 mmHg 43%
    18:00 +30°C° 0,1 mm 3 m/S 719 mmHg 46%
    19:00 +28°C° 0,2 mm 2 m/S 720 mmHg 50%
    20:00 +26°C° 0,2 mm 2 m/S 720 mmHg 53%
    21:00 +24°C° 0,2 mm 1 m/S 721 mmHg 56%
    22:00 +24°C° 0,1 mm 1 m/S 721 mmHg 58%
    23:00 +23°C° 0,1 mm 1 m/S 721 mmHg 60%
    Mehr zeigen